Time,TemperatureF,DewpointF,PressureIn,WindDirection,WindDirectionDegrees,WindSpeedMPH,WindSpeedGustMPH,Humidity,HourlyPrecipIn,Conditions,Clouds,dailyrainin,SoftwareType,DateUTC
2013-04-13 00:03:00,31.0,30.0,29.68,NE,34,0.0,0.0,96,0.01,,,0.14,,2013-04-13 04:03:00,
2013-04-13 00:12:00,31.0,30.0,29.68,NE,34,0.0,0.0,96,0.01,,,0.14,,2013-04-13 04:12:00,
2013-04-13 00:23:00,31.0,30.0,29.69,NE,34,0.0,0.0,95,0.01,,,0.15,,2013-04-13 04:23:00,
2013-04-13 00:33:00,31.0,30.0,29.69,NE,34,0.0,0.0,96,0.01,,,0.15,,2013-04-13 04:33:00,
2013-04-13 00:42:00,31.0,30.0,29.69,NE,34,0.0,0.0,96,0.01,,,0.15,,2013-04-13 04:42:00,
2013-04-13 00:53:00,31.0,30.0,29.69,NE,34,0.0,1.0,96,0.01,,,0.15,,2013-04-13 04:53:00,
2013-04-13 01:02:00,32.0,31.0,29.69,NE,34,0.0,2.0,97,0.01,,,0.15,,2013-04-13 05:02:00,
2013-04-13 01:12:00,32.0,31.0,29.69,NE,34,0.0,2.0,97,0.01,,,0.15,,2013-04-13 05:12:00,
2013-04-13 01:22:00,31.0,30.0,29.69,NE,34,0.0,0.0,96,0.01,,,0.16,,2013-04-13 05:22:00,
2013-04-13 01:32:00,31.0,30.0,29.70,NE,34,0.0,3.0,97,0.01,,,0.16,,2013-04-13 05:32:00,
2013-04-13 01:43:00,31.0,30.0,29.70,NE,34,0.0,3.0,97,0.01,,,0.16,,2013-04-13 05:43:00,
2013-04-13 01:53:00,31.0,30.0,29.70,NE,34,0.0,0.0,97,0.01,,,0.16,,2013-04-13 05:53:00,
2013-04-13 02:02:00,31.0,30.0,29.70,NE,34,0.0,0.0,97,0.01,,,0.16,,2013-04-13 06:02:00,
2013-04-13 02:12:00,31.0,30.0,29.70,NE,34,0.0,0.0,97,0.01,,,0.16,,2013-04-13 06:12:00,
2013-04-13 02:24:00,31.0,30.0,29.70,WSW,237,3.0,5.0,97,0.01,,,0.16,,2013-04-13 06:24:00,
2013-04-13 02:35:00,32.0,31.0,29.70,SW,236,2.0,4.0,97,0.00,,,0.16,,2013-04-13 06:35:00,
2013-04-13 02:55:00,32.0,31.0,29.70,WSW,240,1.0,5.0,97,0.00,,,0.16,,2013-04-13 06:55:00,
2013-04-13 03:05:00,32.0,31.0,29.70,WSW,240,1.0,5.0,97,0.01,,,0.17,,2013-04-13 07:05:00,
2013-04-13 03:15:00,32.0,31.0,29.70,WSW,240,1.0,5.0,97,0.01,,,0.17,,2013-04-13 07:15:00,
2013-04-13 03:24:00,31.0,30.0,29.70,WSW,242,0.0,5.0,97,0.01,,,0.17,,2013-04-13 07:24:00,
2013-04-13 03:35:00,31.0,30.0,29.70,WSW,242,0.0,5.0,97,0.01,,,0.17,,2013-04-13 07:35:00,
2013-04-13 03:45:00,31.0,30.0,29.70,WSW,242,0.0,5.0,97,0.01,,,0.17,,2013-04-13 07:45:00,
2013-04-13 03:57:00,31.0,30.0,29.71,WSW,241,1.0,3.0,97,0.01,,,0.17,,2013-04-13 07:57:00,
2013-04-13 04:06:00,31.0,30.0,29.71,WSW,241,2.0,4.0,97,0.01,,,0.17,,2013-04-13 08:06:00,
2013-04-13 04:16:00,31.0,30.0,29.71,WSW,241,2.0,4.0,97,0.01,,,0.17,,2013-04-13 08:16:00,
2013-04-13 04:25:00,31.0,30.0,29.71,WSW,240,1.0,3.0,97,0.00,,,0.17,,2013-04-13 08:25:00,
2013-04-13 04:35:00,31.0,30.0,29.71,SW,233,0.0,6.0,97,0.00,,,0.17,,2013-04-13 08:35:00,
2013-04-13 04:45:00,31.0,30.0,29.71,SW,233,0.0,6.0,97,0.00,,,0.17,,2013-04-13 08:45:00,
2013-04-13 04:55:00,31.0,30.0,29.71,WSW,244,3.0,4.0,97,0.01,,,0.18,,2013-04-13 08:55:00,
2013-04-13 05:05:00,31.0,30.0,29.72,WSW,247,0.0,3.0,96,0.01,,,0.18,,2013-04-13 09:05:00,
2013-04-13 05:15:00,31.0,30.0,29.72,WSW,247,0.0,3.0,96,0.01,,,0.18,,2013-04-13 09:15:00,
2013-04-13 05:24:00,31.0,30.0,29.72,WSW,246,3.0,3.0,95,0.01,,,0.18,,2013-04-13 09:24:00,
2013-04-13 05:37:00,31.0,30.0,29.72,WSW,246,1.0,3.0,95,0.01,,,0.18,,2013-04-13 09:37:00,
2013-04-13 06:05:00,31.0,30.0,29.71,WSW,245,0.0,2.0,95,0.00,,,0.18,,2013-04-13 10:05:00,
2013-04-13 06:15:00,30.0,29.0,29.71,WSW,245,0.0,3.0,95,0.00,,,0.18,,2013-04-13 10:15:00,
2013-04-13 06:24:00,30.0,29.0,29.71,WSW,245,0.0,3.0,95,0.00,,,0.18,,2013-04-13 10:24:00,
2013-04-13 06:37:00,30.0,29.0,29.71,WSW,245,0.0,2.0,95,0.00,,,0.18,,2013-04-13 10:37:00,
2013-04-13 06:55:00,30.0,29.0,29.71,WSW,245,0.0,3.0,95,0.00,,,0.18,,2013-04-13 10:55:00,
2013-04-13 07:06:00,30.0,29.0,29.70,WSW,245,1.0,3.0,95,0.00,,,0.18,,2013-04-13 11:06:00,
2013-04-13 07:14:00,30.0,29.0,29.70,WSW,245,1.0,3.0,95,0.00,,,0.18,,2013-04-13 11:14:00,
2013-04-13 07:24:00,30.0,29.0,29.71,WSW,245,0.0,3.0,95,0.00,,,0.18,,2013-04-13 11:24:00,
2013-04-13 07:34:00,30.0,29.0,29.71,WSW,245,0.0,3.0,95,0.00,,,0.18,,2013-04-13 11:34:00,
2013-04-13 07:45:00,30.0,29.0,29.71,WSW,245,0.0,3.0,95,0.00,,,0.18,,2013-04-13 11:45:00,
2013-04-13 07:54:00,30.0,29.0,29.71,WSW,245,0.0,3.0,95,0.00,,,0.18,,2013-04-13 11:54:00,
2013-04-13 08:08:00,31.0,30.0,29.71,WSW,248,0.0,3.0,95,0.00,,,0.18,,2013-04-13 12:08:00,
2013-04-13 08:17:00,31.0,30.0,29.71,WSW,248,0.0,3.0,95,0.00,,,0.18,,2013-04-13 12:17:00,
2013-04-13 08:25:00,31.0,30.0,29.72,WSW,248,0.0,2.0,95,0.00,,,0.18,,2013-04-13 12:25:00,
2013-04-13 08:36:00,31.0,30.0,29.72,WSW,252,0.0,3.0,95,0.00,,,0.18,,2013-04-13 12:36:00,
2013-04-13 08:47:00,31.0,30.0,29.72,WSW,252,0.0,3.0,95,0.00,,,0.18,,2013-04-13 12:47:00,
2013-04-13 08:54:00,31.0,30.0,29.72,WSW,252,0.0,3.0,95,0.00,,,0.18,,2013-04-13 12:54:00,
2013-04-13 09:08:00,31.0,30.0,29.72,West,260,1.0,3.0,95,0.00,,,0.18,,2013-04-13 13:08:00,
2013-04-13 09:15:00,31.0,30.0,29.72,West,260,1.0,3.0,95,0.00,,,0.18,,2013-04-13 13:15:00,
2013-04-13 09:30:00,32.0,31.0,29.71,WSW,244,3.0,4.0,95,0.00,,,0.18,,2013-04-13 13:30:00,
2013-04-13 09:54:00,32.0,31.0,29.71,SSE,167,3.0,5.0,95,0.01,,,0.19,,2013-04-13 13:54:00,
2013-04-13 10:05:00,33.0,32.0,29.70,South,180,1.0,4.0,95,0.01,,,0.19,,2013-04-13 14:05:00,
2013-04-13 10:15:00,33.0,32.0,29.70,South,180,1.0,4.0,95,0.01,,,0.19,,2013-04-13 14:15:00,
2013-04-13 10:24:00,33.0,32.0,29.70,SSW,199,3.0,5.0,95,0.01,,,0.19,,2013-04-13 14:24:00,
2013-04-13 11:00:00,34.0,32.0,29.70,South,189,3.0,6.0,94,0.01,,,0.20,,2013-04-13 15:00:00,
2013-04-13 11:05:00,34.0,32.0,29.70,SSW,196,2.0,6.0,94,0.02,,,0.20,,2013-04-13 15:05:00,
2013-04-13 11:14:00,34.0,32.0,29.70,SSW,196,2.0,6.0,94,0.02,,,0.20,,2013-04-13 15:14:00,
2013-04-13 11:29:00,34.0,32.0,29.70,SSW,205,5.0,6.0,93,0.02,,,0.21,,2013-04-13 15:29:00,
2013-04-13 11:44:00,34.0,32.0,29.70,SE,135,5.0,7.0,92,0.02,,,0.21,,2013-04-13 15:44:00,
2013-04-13 11:58:00,34.0,32.0,29.70,SE,140,1.0,7.0,92,0.02,,,0.22,,2013-04-13 15:58:00,
2013-04-13 12:07:00,34.0,32.0,29.70,ESE,116,3.0,6.0,93,0.02,,,0.22,,2013-04-13 16:07:00,
2013-04-13 12:15:00,34.0,32.0,29.70,ESE,116,3.0,6.0,93,0.02,,,0.22,,2013-04-13 16:15:00,
2013-04-13 12:25:00,35.0,33.0,29.70,SE,130,4.0,8.0,92,0.02,,,0.23,,2013-04-13 16:25:00,
2013-04-13 12:36:00,35.0,33.0,29.70,South,186,4.0,9.0,91,0.02,,,0.23,,2013-04-13 16:36:00,
2013-04-13 12:46:00,35.0,33.0,29.70,South,186,4.0,9.0,91,0.02,,,0.23,,2013-04-13 16:46:00,
2013-04-13 12:57:00,36.0,33.0,29.70,SSW,200,5.0,11.0,89,0.02,,,0.24,,2013-04-13 16:57:00,
2013-04-13 13:07:00,36.0,33.0,29.71,SSE,154,5.0,9.0,88,0.02,,,0.24,,2013-04-13 17:07:00,
2013-04-13 13:25:00,34.0,31.0,29.72,SW,214,5.0,10.0,87,0.03,,,0.25,,2013-04-13 17:25:00,
2013-04-13 13:44:00,34.0,31.0,29.72,SSW,208,3.0,10.0,87,0.02,,,0.25,,2013-04-13 17:44:00,
2013-04-13 14:04:00,35.0,31.0,29.73,NNW,342,3.0,11.0,85,0.03,,,0.25,,2013-04-13 18:04:00,
2013-04-13 14:15:00,35.0,30.0,29.73,NNW,328,3.0,10.0,83,0.03,,,0.26,,2013-04-13 18:15:00,
2013-04-13 14:24:00,34.0,29.0,29.74,NW,305,5.0,10.0,82,0.04,,,0.26,,2013-04-13 18:24:00,
2013-04-13 14:33:00,35.0,30.0,29.75,WSW,255,7.0,12.0,81,0.03,,,0.27,,2013-04-13 18:33:00,
2013-04-13 14:42:00,35.0,30.0,29.75,WSW,255,7.0,12.0,81,0.03,,,0.27,,2013-04-13 18:42:00,
2013-04-13 14:53:00,36.0,30.0,29.75,NW,312,6.0,8.0,78,0.03,,,0.28,,2013-04-13 18:53:00,
2013-04-13 15:03:00,36.0,30.0,29.75,NW,312,6.0,8.0,78,0.03,,,0.28,,2013-04-13 19:03:00,
2013-04-13 15:12:00,36.0,30.0,29.75,NW,312,6.0,8.0,78,0.03,,,0.28,,2013-04-13 19:12:00,
2013-04-13 15:22:00,34.0,28.0,29.76,NW,312,3.0,10.0,78,0.03,,,0.28,,2013-04-13 19:22:00,
2013-04-13 15:32:00,34.0,28.0,29.76,NW,312,3.0,10.0,78,0.03,,,0.28,,2013-04-13 19:32:00,
2013-04-13 15:42:00,34.0,28.0,29.76,NW,312,3.0,10.0,78,0.03,,,0.28,,2013-04-13 19:42:00,
2013-04-13 15:52:00,34.0,28.0,29.77,WNW,298,11.0,16.0,78,0.04,,,0.30,,2013-04-13 19:52:00,
2013-04-13 16:02:00,34.0,27.0,29.77,WNW,287,6.0,13.0,75,0.03,,,0.30,,2013-04-13 20:02:00,
2013-04-13 16:12:00,34.0,27.0,29.77,WNW,287,6.0,13.0,75,0.03,,,0.30,,2013-04-13 20:12:00,
2013-04-13 16:22:00,34.0,26.0,29.78,West,279,3.0,16.0,72,0.03,,,0.30,,2013-04-13 20:22:00,
2013-04-13 16:32:00,34.0,26.0,29.78,WSW,258,7.0,11.0,72,0.03,,,0.30,,2013-04-13 20:32:00,
2013-04-13 16:42:00,34.0,26.0,29.78,WSW,258,7.0,11.0,72,0.03,,,0.30,,2013-04-13 20:42:00,
2013-04-13 16:52:00,34.0,28.0,29.79,WSW,244,4.0,10.0,77,0.04,,,0.31,,2013-04-13 20:52:00,
2013-04-13 17:02:00,34.0,28.0,29.79,West,276,4.0,12.0,78,0.03,,,0.31,,2013-04-13 21:02:00,
2013-04-13 17:12:00,34.0,28.0,29.79,West,276,4.0,12.0,78,0.03,,,0.31,,2013-04-13 21:12:00,
2013-04-13 17:22:00,35.0,29.0,29.79,WSW,247,6.0,9.0,77,0.03,,,0.32,,2013-04-13 21:22:00,
2013-04-13 17:33:00,35.0,28.0,29.79,WNW,291,10.0,10.0,76,0.02,,,0.31,,2013-04-13 21:33:00,
2013-04-13 17:43:00,35.0,28.0,29.79,WNW,291,10.0,10.0,76,0.02,,,0.31,,2013-04-13 21:43:00,
2013-04-13 17:52:00,34.0,27.0,29.80,SSW,208,3.0,17.0,76,0.03,,,0.31,,2013-04-13 21:52:00,
2013-04-13 18:03:00,34.0,28.0,29.81,WNW,299,5.0,11.0,80,0.03,,,0.32,,2013-04-13 22:03:00,
2013-04-13 18:13:00,34.0,28.0,29.81,WNW,299,5.0,11.0,80,0.03,,,0.32,,2013-04-13 22:13:00,
2013-04-13 18:22:00,34.0,28.0,29.81,WSW,244,8.0,18.0,79,0.03,,,0.32,,2013-04-13 22:22:00,
2013-04-13 18:33:00,34.0,28.0,29.82,WSW,257,6.0,17.0,79,0.03,,,0.32,,2013-04-13 22:33:00,
2013-04-13 18:42:00,34.0,28.0,29.82,WSW,257,6.0,17.0,79,0.03,,,0.32,,2013-04-13 22:42:00,
2013-04-13 18:52:00,34.0,28.0,29.82,West,259,1.0,10.0,80,0.02,,,0.32,,2013-04-13 22:52:00,
2013-04-13 19:02:00,34.0,28.0,29.83,West,281,6.0,14.0,80,0.02,,,0.32,,2013-04-13 23:02:00,
2013-04-13 19:12:00,34.0,29.0,29.83,West,271,8.0,14.0,81,0.02,,,0.32,,2013-04-13 23:12:00,
2013-04-13 19:22:00,34.0,29.0,29.83,West,271,8.0,14.0,81,0.02,,,0.32,,2013-04-13 23:22:00,
2013-04-13 19:33:00,34.0,29.0,29.83,West,263,9.0,10.0,81,0.02,,,0.32,,2013-04-13 23:33:00,
2013-04-13 19:42:00,34.0,29.0,29.83,West,263,9.0,10.0,81,0.02,,,0.32,,2013-04-13 23:42:00,
2013-04-13 19:53:00,34.0,29.0,29.84,SW,228,4.0,13.0,81,0.02,,,0.32,,2013-04-13 23:53:00,
2013-04-13 20:03:00,34.0,29.0,29.84,WNW,294,3.0,8.0,81,0.02,,,0.32,,2013-04-14 00:03:00,
2013-04-13 20:12:00,34.0,29.0,29.84,WNW,294,3.0,8.0,81,0.02,,,0.32,,2013-04-14 00:12:00,
2013-04-13 20:22:00,34.0,29.0,29.84,WSW,246,3.0,11.0,82,0.02,,,0.32,,2013-04-14 00:22:00,
2013-04-13 20:32:00,34.0,29.0,29.85,West,268,4.0,14.0,82,0.02,,,0.33,,2013-04-14 00:32:00,
2013-04-13 20:42:00,34.0,29.0,29.85,West,268,4.0,14.0,82,0.02,,,0.33,,2013-04-14 00:42:00,
2013-04-13 20:52:00,34.0,30.0,29.86,WNW,292,4.0,11.0,84,0.02,,,0.32,,2013-04-14 00:52:00,
2013-04-13 21:02:00,33.0,30.0,29.86,NNW,333,6.0,8.0,87,0.03,,,0.33,,2013-04-14 01:02:00,
2013-04-13 21:12:00,33.0,30.0,29.86,NNW,333,6.0,8.0,87,0.03,,,0.33,,2013-04-14 01:12:00,
2013-04-13 21:22:00,32.0,29.0,29.88,WNW,283,0.0,8.0,89,0.02,,,0.32,,2013-04-14 01:22:00,
2013-04-13 21:32:00,32.0,29.0,29.88,West,267,2.0,6.0,89,0.02,,,0.33,,2013-04-14 01:32:00,
2013-04-13 21:42:00,32.0,29.0,29.88,West,267,2.0,6.0,89,0.02,,,0.33,,2013-04-14 01:42:00,
2013-04-13 21:53:00,32.0,30.0,29.89,West,267,3.0,5.0,91,0.02,,,0.33,,2013-04-14 01:53:00,
2013-04-13 22:02:00,32.0,30.0,29.89,West,267,1.0,4.0,91,0.02,,,0.33,,2013-04-14 02:02:00,
2013-04-13 22:12:00,32.0,30.0,29.89,West,267,1.0,3.0,91,0.02,,,0.34,,2013-04-14 02:12:00,
2013-04-13 22:22:00,32.0,30.0,29.89,West,267,1.0,3.0,91,0.02,,,0.34,,2013-04-14 02:22:00,
2013-04-13 22:32:00,32.0,30.0,29.90,West,267,0.0,3.0,91,0.02,,,0.33,,2013-04-14 02:32:00,
2013-04-13 22:42:00,32.0,30.0,29.90,West,267,0.0,3.0,91,0.02,,,0.33,,2013-04-14 02:42:00,
2013-04-13 22:53:00,32.0,30.0,29.91,West,267,0.0,3.0,92,0.02,,,0.34,,2013-04-14 02:53:00,
2013-04-13 23:03:00,32.0,30.0,29.91,West,267,0.0,3.0,92,0.02,,,0.34,,2013-04-14 03:03:00,
2013-04-13 23:12:00,32.0,30.0,29.91,West,267,0.0,3.0,92,0.02,,,0.34,,2013-04-14 03:12:00,
2013-04-13 23:22:00,32.0,30.0,29.91,West,267,0.0,3.0,92,0.02,,,0.34,,2013-04-14 03:22:00,
2013-04-13 23:33:00,31.0,29.0,29.91,NNW,343,1.0,3.0,94,0.02,,,0.34,,2013-04-14 03:33:00,
2013-04-13 23:43:00,31.0,29.0,29.91,NNW,343,1.0,3.0,94,0.02,,,0.34,,2013-04-14 03:43:00,
2013-04-13 23:53:00,31.0,29.0,29.91,WSW,249,0.0,4.0,93,0.02,,,0.34,,2013-04-14 03:53:00,